GW0756 Weather Reports


Display with metric or nautical units.
time (UTC)temp
F
wind
direction
speed
MPH
gust
MPH
rain 1hr
in
rain 24hr
in
rain mn
in
humidity
%
barometer
mb
20260507134502 51 250 0.0 0.0 0.00 0.00 0.00 75 1019.2
20260507133958 50 250 0.0 0.0 0.00 0.00 0.00 79 1019.2
20260507133454 48 250 0.0 0.0 0.00 0.00 0.00 85 1019.4
20260507132953 47 250 0.0 0.0 0.00 0.00 0.00 90 1019.3
20260507132449 46 250 0.0 0.0 0.00 0.00 0.00 94 1019.2
20260507131945 46 250 0.0 0.0 0.00 0.00 0.00 97 1019.3
20260507131442 45 250 0.0 0.0 0.00 0.00 0.00 97 1019.3
20260507130939 45 250 0.0 0.0 0.00 0.00 0.00 98 1019.4
20260507130436 44 250 0.0 0.0 0.00 0.00 0.00 98 1019.5
20260507125935 44 250 0.0 0.0 0.00 0.00 0.00 98 1019.4
20260507125432 44 250 0.0 0.0 0.00 0.00 0.00 98 1019.6
20260507124930 43 250 0.0 0.0 0.00 0.00 0.00 98 1019.6
20260507124426 42 250 0.0 0.0 0.00 0.00 0.00 98 1019.4
20260507123924 42 250 0.0 0.0 0.00 0.00 0.00 98 1019.5
20260507123422 42 250 0.0 0.0 0.00 0.00 0.00 98 1019.4
20260507122918 41 250 0.0 0.0 0.00 0.00 0.00 98 1019.5
20260507122413 41 250 0.0 0.0 0.00 0.00 0.00 98 1019.2
20260507121909 40 250 0.0 0.0 0.00 0.00 0.00 98 1019.2
20260507121405 40 250 0.0 0.0 0.00 0.00 0.00 98 1019.3
20260507120902 39 250 0.0 0.0 0.00 0.00 0.00 98 1019.0
20260507120358 38 250 0.0 0.0 0.00 0.00 0.00 98 1019.0
20260507115854 37 250 0.0 0.0 0.00 0.00 0.00 98 1019.2
20260507115350 37 250 0.0 0.0 0.00 0.00 0.00 98 1019.1
20260507114846 37 250 0.0 0.0 0.00 0.00 0.00 98 1019.0
20260507114343 36 250 0.0 0.0 0.00 0.00 0.00 98 1019.0
20260507113841 36 250 0.0 0.0 0.00 0.00 0.00 98 1018.9
20260507113338 36 250 0.0 0.0 0.00 0.00 0.00 98 1018.8
20260507112835 36 250 0.0 0.0 0.00 0.00 0.00 98 1018.9
20260507112332 36 250 0.0 0.0 0.00 0.00 0.00 98 1018.8
20260507111830 36 250 0.0 0.0 0.00 0.00 0.00 98 1018.6
20260507111326 36 250 0.0 0.0 0.00 0.00 0.00 98 1018.5
20260507110822 36 250 0.0 0.0 0.00 0.00 0.00 98 1018.5
20260507110319 37 250 0.0 0.0 0.00 0.00 0.00 98 1018.5
20260507105816 37 250 0.0 0.0 0.00 0.00 0.00 97 1018.8
20260507105312 37 250 0.0 0.0 0.00 0.00 0.00 97 1018.8
20260507104809 36 250 0.0 0.0 0.00 0.00 0.00 97 1018.8
20260507104306 36 250 0.0 0.0 0.00 0.00 0.00 97 1018.6
20260507103802 37 250 0.0 0.0 0.00 0.00 0.00 97 1019.0
20260507103258 37 250 0.0 0.0 0.00 0.00 0.00 97 1018.9
20260507102755 37 250 0.0 0.0 0.00 0.00 0.00 97 1019.0
20260507102251 37 250 0.0 0.0 0.00 0.00 0.00 97 1019.1
20260507101748 36 250 0.0 0.0 0.00 0.00 0.00 97 1018.8
20260507101243 37 250 0.0 0.0 0.00 0.00 0.00 97 1019.0
20260507100740 37 250 0.0 0.0 0.00 0.00 0.00 97 1019.0
20260507100238 37 250 0.0 0.0 0.00 0.00 0.00 97 1019.1
20260507095736 37 250 0.0 0.0 0.00 0.00 0.00 97 1019.1
20260507095232 37 250 0.0 0.0 0.00 0.00 0.00 97 1019.3
20260507094729 37 250 0.0 0.0 0.00 0.00 0.00 97 1019.3
20260507094226 37 250 0.0 0.0 0.00 0.00 0.00 97 1019.1
20260507093723 37 250 0.0 0.0 0.00 0.00 0.00 97 1019.1
20260507093221 37 250 0.0 0.0 0.00 0.00 0.00 97 1019.2
20260507092719 38 250 0.0 0.0 0.00 0.00 0.00 97 1019.0
20260507092215 38 250 0.0 0.0 0.00 0.00 0.00 97 1019.0
20260507091711 38 250 0.0 0.0 0.00 0.00 0.00 97 1018.9
20260507091208 38 250 0.0 0.0 0.00 0.00 0.00 97 1019.2
20260507090703 38 250 0.0 0.0 0.00 0.00 0.00 97 1019.1
20260507090200 39 250 0.0 0.0 0.00 0.00 0.00 97 1019.1
20260507085657 39 250 0.0 0.0 0.00 0.00 0.00 97 1019.0
20260507085154 39 250 0.0 0.0 0.00 0.00 0.00 97 1019.0
20260507084651 39 250 0.0 0.0 0.00 0.00 0.00 97 1019.0
20260507084148 39 250 0.0 0.0 0.00 0.00 0.00 97 1018.9
20260507083644 39 250 0.0 0.0 0.00 0.00 0.00 97 1018.7
20260507083141 39 250 0.0 0.0 0.00 0.00 0.00 97 1019.0
20260507082637 39 250 0.0 0.0 0.00 0.00 0.00 97 1019.0
20260507082134 39 250 0.0 0.0 0.00 0.00 0.00 97 1018.9
20260507081631 39 250 0.0 0.0 0.00 0.00 0.00 97 1018.9
20260507081127 39 250 0.0 0.0 0.00 0.00 0.00 97 1019.1
20260507080623 39 250 0.0 0.0 0.00 0.00 0.00 97 1019.2
20260507080120 39 250 0.0 0.0 0.00 0.00 0.00 97 1019.0
20260507075614 39 250 0.0 0.0 0.00 0.00 0.00 97 1019.1
20260507075111 40 250 0.0 0.0 0.00 0.00 0.00 97 1019.1
20260507074608 40 250 0.0 0.0 0.00 0.00 0.00 97 1019.1
20260507074106 40 250 0.0 0.0 0.00 0.00 0.00 97 1019.1
20260507073602 40 250 0.0 0.0 0.00 0.00 0.00 96 1019.0
20260507073058 41 250 0.0 0.0 0.00 0.00 0.00 96 1018.9
20260507072556 41 250 0.0 0.0 0.00 0.00 0.00 96 1019.2
20260507072053 41 250 0.0 0.0 0.00 0.00 0.00 96 1019.1
20260507071551 41 250 0.0 0.0 0.00 0.00 0.00 96 1019.2
20260507071047 41 250 0.0 0.0 0.00 0.00 0.00 96 1019.3
20260507070544 41 250 0.0 0.0 0.00 0.00 0.00 96 1019.5
20260507070041 42 250 0.0 0.0 0.00 0.00 0.00 96 1019.4
20260507065537 42 250 0.0 0.0 0.00 0.00 0.00 96 1019.2
20260507065035 42 250 0.0 0.0 0.00 0.00 0.00 96 1019.5
20260507064532 42 250 0.0 0.0 0.00 0.00 0.00 96 1019.7
20260507064031 42 250 0.0 0.0 0.00 0.00 0.00 96 1019.6
20260507063527 41 250 0.0 0.0 0.00 0.00 0.00 96 1019.5
20260507063025 41 250 0.0 0.0 0.00 0.00 0.00 96 1019.5
20260507062521 40 250 0.0 0.0 0.00 0.00 0.00 96 1019.7
20260507062019 40 250 0.0 0.0 0.00 0.00 0.00 96 1019.6
20260507061517 40 250 0.0 0.0 0.00 0.00 0.00 95 1019.8
20260507061015 39 250 0.0 0.0 0.00 0.00 0.00 95 1019.9
20260507060512 39 250 0.0 0.0 0.00 0.00 0.00 95 1019.9
20260507060009 39 250 0.0 0.0 0.00 0.00 0.00 95 1019.9
20260507055503 39 250 0.0 0.0 0.00 0.00 0.00 95 1019.8
20260507055000 39 250 0.0 0.0 0.00 0.00 0.00 95 1019.7
20260507054456 39 250 0.0 0.0 0.00 0.00 0.00 95 1019.8
20260507053954 39 250 0.0 0.0 0.00 0.00 0.00 95 1019.5
20260507053451 39 250 0.0 0.0 0.00 0.00 0.00 95 1019.6
20260507052949 39 250 0.0 0.0 0.00 0.00 0.00 95 1019.7
20260507052447 39 250 0.0 0.0 0.00 0.00 0.00 95 1019.8
20260507051943 39 250 0.0 0.0 0.00 0.00 0.00 95 1019.7
20260507051441 39 250 0.0 0.0 0.00 0.00 0.00 95 1019.6
20260507050938 39 250 0.0 0.0 0.00 0.00 0.00 94 1019.6
20260507050434 39 250 0.0 0.0 0.00 0.00 0.00 94 1019.7
20260507045931 39 250 0.0 0.0 0.00 0.05 0.05 94 1019.7
20260507045428 40 250 0.0 0.0 0.00 0.05 0.05 94 1019.8
20260507044925 40 250 0.0 0.0 0.00 0.05 0.05 94 1019.8
20260507044422 40 250 0.0 0.0 0.00 0.05 0.05 94 1019.7
20260507043918 40 250 0.0 0.0 0.00 0.05 0.05 94 1019.6
20260507043414 40 250 0.0 0.0 0.00 0.05 0.05 94 1019.7
20260507042911 40 250 0.0 0.0 0.00 0.05 0.05 94 1019.7
20260507042407 40 250 0.0 0.0 0.00 0.05 0.05 94 1020.0
20260507041903 40 250 0.0 0.0 0.00 0.05 0.05 93 1019.9
20260507041400 40 250 0.0 0.0 0.00 0.05 0.05 93 1019.7
20260507040857 40 250 0.0 0.0 0.00 0.05 0.05 93 1020.0
20260507040353 41 250 0.0 0.0 0.00 0.05 0.05 93 1019.8
20260507035849 41 250 0.0 0.0 0.00 0.05 0.05 93 1020.0
20260507035345 41 250 0.0 0.0 0.00 0.05 0.05 93 1019.9
20260507034843 41 250 0.0 0.0 0.00 0.05 0.05 92 1020.1
20260507034339 41 250 0.0 0.0 0.00 0.05 0.05 92 1019.9
20260507033837 41 250 0.0 0.0 0.00 0.05 0.05 92 1020.0
20260507033335 41 250 0.0 0.0 0.00 0.05 0.05 92 1019.9
20260507032832 41 250 0.0 0.0 0.00 0.05 0.05 92 1019.9
20260507032328 42 250 0.0 0.0 0.00 0.05 0.05 91 1019.7
20260507031825 42 250 0.0 0.0 0.00 0.05 0.05 91 1019.7
20260507031322 42 250 0.0 0.0 0.00 0.05 0.05 91 1019.4
20260507030818 42 250 0.0 0.0 0.00 0.05 0.05 91 1019.8
20260507030316 42 250 0.0 0.0 0.00 0.05 0.05 90 1019.8
20260507025812 42 250 0.0 0.0 0.00 0.05 0.05 90 1019.9
20260507025310 42 250 0.0 0.0 0.00 0.05 0.05 90 1019.7
20260507024808 42 250 0.0 0.0 0.00 0.05 0.05 90 1019.8
20260507024304 43 250 0.0 0.0 0.00 0.05 0.05 89 1019.6
20260507023800 43 250 0.0 0.0 0.00 0.05 0.05 89 1019.5
20260507023257 43 250 0.0 0.0 0.00 0.05 0.05 89 1019.4
20260507022754 43 250 0.0 0.0 0.00 0.05 0.05 88 1019.4
20260507022251 43 250 0.0 0.0 0.00 0.05 0.05 88 1019.3
20260507021747 44 250 0.0 0.0 0.00 0.05 0.05 87 1019.1
20260507021242 44 250 0.0 0.0 0.00 0.05 0.05 87 1019.4
20260507020741 44 250 0.0 0.0 0.00 0.05 0.05 86 1019.4
20260507020237 45 250 0.0 0.0 0.00 0.05 0.05 86 1019.1
20260507015734 45 250 0.0 0.0 0.00 0.05 0.05 85 1019.2
20260507015232 45 250 0.0 0.0 0.00 0.05 0.05 85 1019.1
20260507014728 45 250 0.0 0.0 0.00 0.05 0.05 84 1018.8
20260507014225 46 250 0.0 0.0 0.00 0.05 0.05 83 1019.1
20260507013721 46 250 0.0 0.0 0.00 0.05 0.05 82 1018.9
20260507013219 47 250 0.0 0.0 0.00 0.05 0.05 81 1018.8
20260507012716 48 250 0.0 0.0 0.00 0.05 0.05 80 1018.8
20260507012211 48 250 0.0 0.0 0.00 0.05 0.05 78 1018.7
20260507011709 49 250 0.0 0.0 0.00 0.05 0.05 76 1019.0
20260507011206 50 250 0.0 0.0 0.00 0.05 0.05 73 1018.8
20260507010705 51 250 0.0 0.0 0.00 0.05 0.05 69 1018.5
20260507010201 52 250 0.0 0.0 0.00 0.05 0.05 66 1018.6
20260507005659 53 250 0.0 0.0 0.00 0.05 0.05 61 1018.6
20260507005155 56 250 0.0 0.0 0.00 0.05 0.05 58 1018.4
20260507004652 57 250 0.0 0.0 0.00 0.05 0.05 53 1018.7
20260507004149 58 250 0.0 0.0 0.00 0.05 0.05 45 1018.5
20260507003646 58 250 0.0 0.0 0.00 0.05 0.05 44 1018.7
20260507003145 59 250 0.0 0.0 0.00 0.05 0.05 42 1018.4
20260507002642 59 250 1.0 1.0 0.00 0.05 0.05 41 1018.5
20260507002138 60 250 0.0 0.0 0.00 0.05 0.05 45 1018.4
20260507001635 60 250 0.0 2.0 0.00 0.05 0.05 41 1018.5
20260507001133 60 250 0.0 0.0 0.00 0.05 0.05 42 1018.3
20260507000629 60 250 0.0 0.0 0.00 0.05 0.05 43 1018.3
20260507000124 60 250 0.0 0.0 0.00 0.05 0.05 40 1018.3
20260506235622 60 250 0.0 0.0 0.00 0.05 0.05 41 1018.4
20260506235122 60 250 0.0 2.0 0.00 0.05 0.05 41 1018.3
20260506234619 60 250 1.0 2.0 0.00 0.05 0.05 39 1018.5
20260506234116 60 250 0.0 0.0 0.00 0.05 0.05 39 1018.5
20260506233613 60 250 1.0 2.0 0.00 0.05 0.05 41 1018.1
20260506233110 60 250 1.0 1.0 0.00 0.05 0.05 40 1018.2
20260506232606 61 250 2.0 3.0 0.00 0.05 0.05 37 1018.2
20260506232102 62 250 0.0 1.0 0.00 0.05 0.05 39 1018.3
20260506231559 61 250 0.0 1.0 0.00 0.05 0.05 40 1018.3
20260506231058 61 250 0.0 0.0 0.00 0.05 0.05 41 1018.3
20260506230553 61 250 1.0 2.0 0.00 0.05 0.05 38 1018.6
20260506230051 61 250 2.0 3.0 0.00 0.05 0.05 38 1018.4
20260506225548 61 250 2.0 2.0 0.00 0.05 0.05 37 1018.4
20260506225044 61 249 2.0 3.0 0.00 0.05 0.05 39 1018.4
20260506224541 61 246 0.0 0.0 0.00 0.05 0.05 41 1018.4
20260506224038 62 242 2.0 2.0 0.00 0.05 0.05 37 1018.5
20260506223533 62 243 0.0 0.0 0.00 0.05 0.05 37 1018.4
20260506223030 61 243 2.0 3.0 0.00 0.05 0.05 39 1018.4
20260506222527 61 239 3.0 5.0 0.00 0.05 0.05 37 1018.5
20260506222023 62 232 3.0 3.0 0.00 0.05 0.05 38 1018.6
20260506221521 62 228 0.0 1.0 0.00 0.05 0.05 43 1018.3
20260506221019 61 226 1.0 2.0 0.00 0.05 0.05 42 1018.6
20260506220514 62 223 5.0 7.0 0.00 0.05 0.05 40 1018.4
20260506220010 61 222 1.0 2.0 0.00 0.05 0.05 45 1018.3
20260506215508 61 218 5.0 6.0 0.00 0.05 0.05 37 1018.7
20260506215003 61 213 2.0 2.0 0.00 0.05 0.05 42 1018.7
20260506214500 60 209 1.0 2.0 0.00 0.05 0.05 42 1018.6
20260506213957 60 198 6.0 8.0 0.00 0.05 0.05 40 1018.7
20260506213455 62 183 5.0 7.0 0.00 0.05 0.05 36 1018.6
20260506212952 62 180 0.0 0.0 0.00 0.05 0.05 41 1018.9
20260506212448 62 180 0.0 0.0 0.00 0.05 0.05 40 1018.6
20260506211943 60 184 2.0 2.0 0.00 0.05 0.05 44 1019.1
20260506211439 61 179 3.0 5.0 0.00 0.05 0.05 41 1018.8
20260506210937 61 176 0.0 0.0 0.00 0.05 0.05 40 1018.7
20260506210433 60 172 5.0 8.0 0.00 0.05 0.05 42 1018.7
20260506205931 60 168 1.0 2.0 0.00 0.05 0.05 39 1018.9
20260506205426 62 162 2.0 7.0 0.00 0.05 0.05 40 1018.8
20260506204922 62 160 0.0 1.0 0.00 0.05 0.05 42 1019.1
20260506204421 61 160 1.0 1.0 0.00 0.05 0.05 39 1018.9
20260506203918 61 160 1.0 1.0 0.00 0.05 0.05 41 1019.1
20260506203415 61 160 5.0 6.0 0.00 0.05 0.05 43 1019.0
20260506202912 61 160 0.0 0.0 0.00 0.05 0.05 45 1019.2
20260506202409 60 160 3.0 7.0 0.00 0.05 0.05 44 1019.3
20260506201905 61 160 0.0 1.0 0.00 0.05 0.05 49 1019.5
20260506201403 61 160 1.0 2.0 0.00 0.05 0.05 43 1019.5
20260506200859 59 160 0.0 1.0 0.00 0.05 0.05 39 1019.3
20260506200355 60 160 5.0 6.0 0.00 0.05 0.05 41 1019.3
20260506195852 60 160 3.0 5.0 0.00 0.05 0.05 46 1019.6
20260506195349 60 160 2.0 3.0 0.00 0.05 0.05 44 1019.8
20260506194846 61 160 1.0 2.0 0.00 0.05 0.05 46 1019.6
20260506194343 60 160 1.0 1.0 0.00 0.05 0.05 46 1019.6
20260506193840 61 160 3.0 5.0 0.00 0.05 0.05 43 1019.4
20260506193337 61 160 1.0 2.0 0.00 0.05 0.05 45 1019.7
20260506192833 60 160 1.0 3.0 0.00 0.05 0.05 45 1019.5
20260506192330 59 160 4.0 6.0 0.00 0.05 0.05 40 1019.6
20260506191827 60 160 5.0 7.0 0.00 0.05 0.05 42 1020.0
20260506191323 60 160 4.0 5.0 0.00 0.05 0.05 46 1019.9
20260506190820 59 160 0.0 0.0 0.00 0.05 0.05 47 1019.6
20260506190317 59 160 1.0 1.0 0.00 0.05 0.05 43 1020.0
20260506185814 60 160 3.0 5.0 0.00 0.05 0.05 47 1020.0
20260506185311 59 160 0.0 0.0 0.00 0.05 0.05 45 1019.9
20260506184808 58 160 0.0 0.0 0.00 0.05 0.05 46 1020.1
20260506184305 58 160 4.0 6.0 0.00 0.05 0.05 38 1020.0
20260506183802 59 160 1.0 1.0 0.00 0.05 0.05 43 1020.0
20260506183257 59 160 0.0 1.0 0.00 0.05 0.05 47 1020.0
20260506182754 60 160 6.0 8.0 0.00 0.05 0.05 43 1020.2
20260506182251 59 160 1.0 2.0 0.00 0.05 0.05 47 1020.2
20260506181749 59 160 3.0 5.0 0.00 0.05 0.05 45 1020.0
20260506181247 60 160 5.0 7.0 0.00 0.05 0.05 39 1020.0
20260506180744 58 160 3.0 3.0 0.00 0.05 0.05 42 1020.2
20260506180239 59 160 0.0 1.0 0.00 0.05 0.05 45 1020.3
20260506175736 58 160 1.0 3.0 0.00 0.05 0.05 47 1020.3
20260506175233 59 160 4.0 6.0 0.00 0.05 0.05 43 1020.4
20260506174731 59 160 4.0 6.0 0.00 0.05 0.05 44 1020.2
20260506174227 59 160 2.0 2.0 0.00 0.05 0.05 52 1020.6
20260506173725 58 160 0.0 0.0 0.00 0.05 0.05 44 1020.6
20260506173222 58 160 4.0 5.0 0.00 0.05 0.05 49 1020.4
20260506172719 58 160 2.0 2.0 0.00 0.05 0.05 51 1020.4
20260506172215 58 160 7.0 8.0 0.00 0.05 0.05 48 1020.4
20260506171713 58 160 4.0 7.0 0.00 0.05 0.05 48 1020.6
20260506171210 59 160 5.0 6.0 0.00 0.05 0.05 46 1020.4
20260506170708 59 160 0.0 0.0 0.00 0.05 0.05 51 1020.4
20260506170204 58 160 0.0 0.0 0.00 0.05 0.05 47 1020.5
20260506165703 58 160 7.0 9.0 0.00 0.05 0.05 44 1020.5
20260506165159 57 160 4.0 7.0 0.00 0.05 0.05 47 1020.6
20260506164656 57 160 3.0 3.0 0.00 0.05 0.05 47 1020.5
20260506164153 58 160 5.0 6.0 0.00 0.05 0.05 48 1020.5
20260506163650 58 160 0.0 1.0 0.00 0.05 0.05 55 1020.3
20260506163145 58 160 2.0 3.0 0.00 0.05 0.05 48 1020.2
20260506162641 57 160 3.0 5.0 0.00 0.05 0.05 58 1020.2
20260506162139 57 160 7.0 8.0 0.00 0.05 0.05 55 1020.0
20260506161636 57 160 2.0 3.0 0.00 0.05 0.05 58 1019.9
20260506161133 57 160 2.0 2.0 0.00 0.05 0.05 58 1019.7
20260506160630 56 160 0.0 0.0 0.00 0.05 0.05 56 1019.7
20260506160126 56 160 0.0 0.0 0.00 0.05 0.05 64 1019.9
20260506155626 55 160 0.0 0.0 0.00 0.05 0.05 66 1019.7
20260506155122 54 160 1.0 2.0 0.00 0.05 0.05 70 1019.6
20260506153224 53 160 0.0 0.0 0.00 0.05 0.05 66 1019.7
20260506152721 53 160 4.0 7.0 0.00 0.05 0.05 70 1019.7
20260506152219 54 160 1.0 2.0 0.00 0.05 0.05 71 1020.0
20260506151718 53 160 2.0 3.0 0.00 0.05 0.05 70 1019.7
20260506151214 53 160 0.0 1.0 0.00 0.05 0.05 70 1019.8
20260506150710 53 160 3.0 5.0 0.00 0.05 0.05 72 1019.7
20260506150207 52 160 0.0 0.0 0.00 0.05 0.05 72 1019.6
20260506145704 52 160 2.0 6.0 0.00 0.05 0.05 70 1019.9
20260506145201 52 160 2.0 3.0 0.00 0.05 0.05 73 1019.7
20260506144659 52 160 3.0 5.0 0.00 0.05 0.05 72 1019.9
20260506144155 52 160 2.0 2.0 0.00 0.05 0.05 73 1019.9
20260506143653 52 160 1.0 1.0 0.00 0.05 0.05 73 1020.0
20260506143150 51 160 2.0 2.0 0.00 0.05 0.05 74 1020.2
20260506142649 51 160 2.0 2.0 0.00 0.05 0.05 76 1020.1
20260506142146 51 160 2.0 2.0 0.00 0.05 0.05 77 1019.9
20260506141644 51 160 2.0 2.0 0.00 0.05 0.05 77 1019.9
20260506141142 51 160 1.0 2.0 0.00 0.05 0.05 81 1019.7
20260506140639 50 160 1.0 1.0 0.00 0.05 0.05 81 1019.7
20260506140136 50 160 1.0 2.0 0.00 0.05 0.05 82 1019.6
20260506135633 50 160 1.0 1.0 0.00 0.05 0.05 85 1019.6
20260506135129 49 160 0.0 0.0 0.00 0.05 0.05 89 1019.7